FW5905 Weather Reports


time (UTC)temp
C
wind
direction
speed
KPH
gust
KPH
rain 1hr
cm
rain 24hr
cm
rain mn
cm
humidity
%
barometer
mb
20260508174024 17 18 1.6 4.8 0.00 0.20 0.00 88 1013.2
20260508173024 18 37 3.2 4.8 0.00 0.23 0.00 87 1012.9
20260508172023 18 46 1.6 6.4 0.00 0.25 0.00 88 1012.9
20260508171023 18 43 1.6 4.8 0.00 0.28 0.00 88 1012.9
20260508170024 18 49 3.2 9.7 0.00 0.30 0.00 87 1013.0
20260508165044 19 13 3.2 9.7 0.00 0.36 0.00 85 1012.7
20260508164024 19 12 3.2 6.4 0.00 0.43 0.00 86 1012.5
20260508163024 19 7 1.6 4.8 0.00 0.46 0.00 87 1012.5
20260508162024 19 55 3.2 11.3 0.00 0.51 0.00 87 1012.3
20260508161024 19 21 3.2 6.4 0.00 0.56 0.00 87 1012.5
20260508160024 18 37 3.2 9.7 0.00 0.61 0.00 88 1012.7
20260508155023 18 31 3.2 6.4 0.00 0.64 0.00 89 1012.8
20260508154023 18 25 3.2 12.9 0.00 0.64 0.00 89 1012.8
20260508153024 18 1 1.6 6.4 0.00 0.66 0.00 91 1013.1
20260508152024 17 321 1.6 4.8 0.00 0.71 0.00 91 1013.4
20260508151024 17 348 1.6 4.8 0.00 0.71 0.00 91 1013.3
20260508150023 17 47 3.2 6.4 0.00 0.71 0.00 89 1013.5
20260508145024 17 8 1.6 4.8 0.00 0.71 0.00 90 1013.8
20260508144023 18 8 1.6 3.2 0.00 0.71 0.00 89 1013.7
20260508143025 18 8 1.6 4.8 0.00 0.71 0.00 88 1013.6
20260508142023 18 23 1.6 3.2 0.00 0.71 0.00 88 1013.8
20260508141043 18 17 1.6 4.8 0.00 0.71 0.00 87 1013.9
20260508140024 18 356 1.6 4.8 0.00 0.71 0.00 88 1013.8
20260508135024 18 16 1.6 4.8 0.00 0.71 0.00 87 1013.7
20260508134024 18 40 3.2 6.4 0.00 0.71 0.00 87 1013.6
20260508133024 18 20 1.6 6.4 0.00 0.71 0.00 88 1013.8
20260508132044 18 31 3.2 6.4 0.00 0.71 0.00 89 1013.4
20260508131024 17 34 3.2 6.4 0.00 0.71 0.00 89 1013.6
20260508130024 17 44 4.8 11.3 0.00 0.71 0.00 89 1013.6
20260508125024 17 47 4.8 12.9 0.00 0.71 0.00 89 1013.6
20260508124024 18 33 6.4 14.5 0.00 0.71 0.00 89 1013.6
20260508123024 18 26 4.8 12.9 0.00 0.71 0.00 86 1013.5
20260508122024 18 39 4.8 14.5 0.00 0.71 0.00 85 1013.5
20260508121024 18 54 3.2 9.7 0.00 0.71 0.00 86 1013.5
20260508120024 18 30 3.2 9.7 0.00 0.71 0.00 87 1013.4
20260508115024 18 24 1.6 4.8 0.00 0.71 0.00 89 1013.4
20260508114024 18 47 1.6 6.4 0.00 0.71 0.00 89 1013.5
20260508113024 17 50 3.2 6.4 0.00 0.71 0.00 91 1013.7
20260508112024 17 27 1.6 4.8 0.00 0.71 0.00 93 1013.7
20260508111024 17 39 4.8 9.7 0.00 0.71 0.00 93 1013.7
20260508110043 17 32 3.2 6.4 0.00 0.71 0.00 91 1013.9
20260508105023 18 22 3.2 9.7 0.00 0.71 0.00 87 1013.7
20260508104023 17 24 3.2 6.4 0.00 0.71 0.00 91 1013.6
20260508103023 17 42 4.8 11.3 0.00 0.71 0.00 90 1013.6
20260508102024 17 32 1.6 6.4 0.00 0.71 0.00 91 1013.6
20260508101024 17 29 3.2 6.4 0.00 0.71 0.00 90 1013.7
20260508100024 17 24 3.2 11.3 0.00 0.71 0.00 91 1013.9
20260508095024 17 49 3.2 6.4 0.00 0.71 0.00 92 1014.0
20260508094024 16 49 3.2 6.4 0.00 0.71 0.00 93 1014.0
20260508093027 16 35 3.2 4.8 0.00 0.71 0.00 94 1013.9
20260508092023 16 35 1.6 4.8 0.00 0.71 0.00 94 1013.9
20260508091023 16 33 3.2 4.8 0.00 0.71 0.00 95 1014.0
20260508090044 16 25 3.2 6.4 0.00 0.71 0.00 95 1013.7
20260508085024 16 34 1.6 4.8 0.00 0.71 0.00 96 1013.8
20260508084024 15 39 1.6 4.8 0.00 0.71 0.00 97 1013.5
20260508083024 15 35 1.6 4.8 0.00 0.71 0.00 96 1013.7
20260508082044 15 39 1.6 6.4 0.00 0.71 0.00 96 1013.7
20260508081024 15 23 1.6 4.8 0.00 0.71 0.00 97 1013.6
20260508080024 16 32 3.2 9.7 0.00 0.71 0.00 98 1013.4
20260508075024 15 25 1.6 4.8 0.00 0.71 0.00 99 1013.3
20260508074044 15 41 3.2 6.4 0.00 0.71 0.00 99 1013.4
20260508073044 15 29 1.6 4.8 0.00 0.71 0.00 99 1013.3
20260508072024 13 34 1.6 4.8 0.00 0.71 0.00 99 1013.2
20260508071024 13 27 1.6 3.2 0.00 0.71 0.00 99 1013.3
20260508070023 13 25 1.6 3.2 0.00 0.71 0.00 99 1013.2
20260508065024 13 29 1.6 3.2 0.00 0.71 0.00 99 1013.2
20260508064044 13 21 1.6 4.8 0.00 0.71 0.00 99 1013.1
20260508063024 13 26 1.6 3.2 0.00 0.71 0.00 99 1013.1
20260508062024 13 14 0.0 3.2 0.00 0.71 0.00 99 1013.0
20260508061024 13 31 1.6 3.2 0.00 0.71 0.00 99 1012.9
20260508060024 13 28 1.6 3.2 0.00 0.71 0.00 99 1012.8
20260508055024 13 29 1.6 3.2 0.00 0.71 0.00 99 1012.7
20260508054024 13 35 1.6 4.8 0.00 0.71 0.00 99 1012.5
20260508053024 13 26 1.6 3.2 0.00 0.71 0.00 99 1012.3
20260508052024 13 28 1.6 3.2 0.00 0.71 0.00 99 1012.1
20260508051024 13 22 0.0 3.2 0.00 0.71 0.00 99 1011.8
20260508050024 12 15 0.0 3.2 0.00 0.71 0.00 99 1011.7
20260508045024 12 17 0.0 1.6 0.00 0.71 0.00 99 1011.5
20260508044044 12 15 0.0 1.6 0.00 0.71 0.00 99 1011.4
20260508043024 12 23 0.0 1.6 0.00 0.71 0.00 99 1011.5
20260508042024 12 34 0.0 1.6 0.00 0.71 0.00 99 1011.4
20260508041025 12 38 0.0 1.6 0.00 0.71 0.00 99 1011.3
20260508040024 13 22 0.0 1.6 0.00 0.71 0.00 99 1011.2
20260508035024 13 18 0.0 1.6 0.00 0.71 0.00 99 1011.2
20260508034024 13 19 1.6 3.2 0.00 0.71 0.00 99 1011.4
20260508033024 13 24 1.6 3.2 0.00 0.71 0.00 99 1011.6
20260508032044 13 0.0 0.0 0.00 0.71 0.00 99 1011.8
20260508031024 13 15 0.0 1.6 0.00 0.71 0.00 99 1011.7
20260508030023 13 25 0.0 1.6 0.00 0.71 0.00 99 1011.6
20260508025023 13 15 0.0 1.6 0.00 0.74 0.00 99 1011.6
20260508024023 13 38 1.6 4.8 0.00 0.74 0.00 99 1011.6
20260508023043 13 30 1.6 3.2 0.00 0.74 0.00 99 1011.6
20260508022023 12 23 0.0 1.6 0.00 0.74 0.00 99 1011.6
20260508021023 13 24 1.6 3.2 0.00 0.74 0.00 99 1011.4
20260508020024 13 21 1.6 3.2 0.00 0.74 0.00 99 1011.4
20260508015024 12 21 1.6 3.2 0.00 0.74 0.00 99 1011.6
20260508014024 12 25 0.0 3.2 0.00 0.74 0.00 99 1011.7
20260508013024 13 58 0.0 3.2 0.00 0.74 0.00 99 1011.8
20260508012023 13 21 1.6 4.8 0.00 0.74 0.00 99 1011.8
20260508011023 13 29 0.0 3.2 0.00 0.74 0.00 99 1011.8
20260508010024 13 28 1.6 4.8 0.00 0.74 0.00 99 1012.1
20260508005024 13 27 1.6 3.2 0.00 0.74 0.00 99 1012.4
20260508004024 13 47 1.6 3.2 0.03 0.74 0.00 99 1012.3
20260508003024 13 22 1.6 3.2 0.03 0.74 0.00 99 1012.4
20260508002024 13 21 0.0 1.6 0.03 0.74 0.00 99 1012.4
20260508001024 13 33 1.6 3.2 0.03 0.74 0.00 99 1012.3
20260508000024 13 23 1.6 3.2 0.03 0.74 0.00 99 1012.5
20260507235024 13 27 1.6 3.2 0.05 0.74 0.74 99 1012.5
20260507234024 13 30 0.0 3.2 0.05 0.71 0.71 99 1012.6
20260507233024 13 28 1.6 3.2 0.05 0.71 0.71 99 1012.9
20260507232024 13 20 1.6 3.2 0.08 0.71 0.71 99 1013.0
20260507231024 13 41 1.6 3.2 0.08 0.71 0.71 99 1013.1
20260507230023 13 19 0.0 1.6 0.08 0.71 0.71 99 1013.1
20260507225043 13 18 0.0 1.6 0.05 0.69 0.69 99 1013.3
20260507224023 13 16 0.0 3.2 0.03 0.66 0.66 99 1013.3
20260507223024 13 27 1.6 3.2 0.03 0.66 0.66 99 1013.3
20260507222023 13 41 1.6 4.8 0.00 0.64 0.64 99 1013.2
20260507221023 13 32 1.6 4.8 0.00 0.64 0.64 99 1013.2
20260507220024 13 33 1.6 6.4 0.00 0.64 0.64 99 1013.2
20260507215024 13 33 1.6 4.8 0.00 0.64 0.64 99 1013.1
20260507214024 13 36 1.6 4.8 0.00 0.64 0.64 99 1013.1
20260507213024 13 49 1.6 3.2 0.00 0.64 0.64 99 1012.9
20260507212024 13 41 1.6 3.2 0.00 0.64 0.64 99 1013.1
20260507211024 13 17 1.6 3.2 0.00 0.64 0.64 99 1013.1
20260507210024 13 36 1.6 3.2 0.03 0.64 0.64 99 1013.2
20260507205023 13 31 1.6 3.2 0.03 0.64 0.64 99 1012.9
20260507204024 13 31 1.6 4.8 0.03 0.64 0.64 99 1012.9
20260507203024 13 32 3.2 6.4 0.03 0.64 0.64 99 1012.7
20260507202024 13 50 3.2 6.4 0.05 0.64 0.64 99 1012.8
20260507201024 13 43 3.2 6.4 0.05 0.64 0.64 99 1012.7
20260507200044 13 39 1.6 4.8 0.03 0.61 0.61 99 1012.6
20260507195024 13 43 1.6 4.8 0.05 0.61 0.61 99 1012.4
20260507194024 13 28 1.6 3.2 0.05 0.61 0.61 99 1012.4
20260507193024 13 79 3.2 6.4 0.05 0.61 0.61 99 1012.1
20260507192024 13 43 1.6 3.2 0.03 0.58 0.58 99 1012.2
20260507191023 13 24 1.6 4.8 0.03 0.58 0.58 99 1012.2
20260507190024 13 28 1.6 4.8 0.03 0.58 0.58 99 1012.1
20260507185024 13 23 1.6 3.2 0.00 0.56 0.56 99 1012.1
20260507184024 13 17 1.6 3.2 0.03 0.56 0.56 99 1011.9
20260507183024 13 25 1.6 3.2 0.05 0.56 0.56 99 1011.8
20260507182023 14 22 1.6 4.8 0.08 0.56 0.56 99 1011.6
20260507181023 14 22 1.6 3.2 0.10 0.56 0.56 99 1011.4
20260507180024 14 27 1.6 3.2 0.13 0.56 0.56 99 1011.3
20260507175024 14 58 1.6 3.2 0.18 0.56 0.56 99 1011.2